Tracking 35331 objects as of 16-Sep-2026
HD Live streaming from Space Station
objects crossing your sky now

KEPLER-15 (SUDORMRF)


KEPLER-15 (SUDORMRF) is no longer on orbit


NORAD ID: 47461
Int'l Code: 2021-006BA
Launch date: January 24, 2021
Source: United States (US)
Launch site: ()
Decay date: 2024-05-26
Your satellite tracking list
Your tracking list is empty




NASA's NSSDC Master Catalog

Two Line Element Set (TLE):
1 47461U 21006BA  24147.08126390  .17485163  25449-5  32807-3 0  9995
2 47461  97.2875 213.7794 0012601 242.9858 117.0159 16.46587344185740
Source of the keplerian elements: AFSPC